Regional Weather Roundup
Issued by NWS

Home | Current Version | Previous Version | Text Only | Print | Product List | Glossary Off
Versions: 1 2 3 4 5 6 7 8 9 10 11 12 13 14 15 16 17 18 19 20 21 22 23 24 25 26 27 28 29 30 31 32 33 34 35 36 37 38 39 40 41 42 43 44 45 46 47 48 49 50

000
ASUS45 KCYS 040110
RWRWY

WYOMING REGIONAL WEATHER ROUNDUP
NATIONAL WEATHER SERVICE CHEYENNE WY
700 PM MDT MON AUG 03 2015

NOTE:  "FAIR" INDICATES FEW OR NO CLOUDS BELOW 12,000 FEET
WITH NO SIGNIFICANT WEATHER AND/OR OBSTRUCTIONS TO VISIBILITY.

WYZ001-040200-
YELLOWSTONE NATIONAL PARK

CITY           SKY/WX    TMP DP  RH WIND       PRES   REMARKS
LK YELLOWSTONE   N/A     63  45  51 W9        30.24R
W YELLOWSTONE  NOT AVBL

$$
WYZ002>013-054>058-071-098>099-040200-
NORTHERN WYOMING

CITY           SKY/WX    TMP DP  RH WIND       PRES   REMARKS
JACKSON        MOSUNNY   63  55  77 N7        30.11F
CODY           FAIR      77  50  38 N7        29.95F
GREYBULL       PTSUNNY   84  41  21 S16G31    29.89R
WORLAND        PTSUNNY   78  47  33 SE20G32   29.96R
SHERIDAN       FAIR      84  54  35 E7        29.90S
BUFFALO        PTSUNNY   75  48  38 S32G49    30.01R
GILLETTE       PTSUNNY   83  54  36 S18       29.97R
HULETT         FAIR      77  54  44 E8        29.99S
NEWCASTLE      FAIR      79  54  41 SE9       29.97F

$$
WYZ014>020-022>026-101>103-040200-
CENTRAL WYOMING

CITY           SKY/WX    TMP DP  RH WIND       PRES   REMARKS
BIG PINEY      LGT RAIN  56  53  90 N12       30.13F
PINEDALE       TSTM      59  50  72 CALM      30.15R
DUBOIS         CLOUDY    70  37  30 SE25      30.11S
LANDER         FAIR      62  57  83 SW10      30.02F
RIVERTON       FAIR      68  51  54 CALM      30.04S
CASPER         LGT RAIN  65  55  70 N14       30.05F
DOUGLAS        FAIR      74  46  36 N14       30.02F

$$
WYZ021-027>030-104>119-040200-
SOUTHERN WYOMING

CITY           SKY/WX    TMP DP  RH WIND       PRES   REMARKS
EVANSTON       CLOUDY    57  51  80 W14       30.21S
KEMMERER       CLOUDY    54  50  87 W23G31    30.17R
FORT BRIDGER   CLOUDY    55  55 100 W24G35    30.20S
ROCK SPRINGS   CLOUDY    57  55  93 W14       30.12S
DIXON          CLOUDY    62  55  77 S8        30.17S
RAWLINS        TSTM      59  54  83 NE7       30.14R
SARATOGA       TSTM      59  52  77 SW18      30.14S
LARAMIE        FAIR      72  39  30 SE20      30.16S
CHEYENNE       FAIR      76  35  22 SE14G22   30.10F
TORRINGTON     FAIR      83  52  34 S8        29.95R
PINE BLUFFS    FAIR      77  41  27 S7        30.04F

$$



USA.gov is the U.S. government's official web portal to all federal, state and local government web resources and services.